Regional Weather Roundup
Issued by NWS

Home | Current Version | Previous Version | Graphics & Text | Print | Product List | Glossary On
Versions: 1 2 3 4 5 6 7 8 9 10 11 12 13 14 15 16 17 18 19 20 21 22 23 24 25 26 27 28 29 30 31 32 33 34 35 36 37 38 39 40 41 42 43 44 45 46 47 48 49 50
000
ASUS43 KTOP 281459
RWRKS

WEATHER ROUNDUP FOR KANSAS
NATIONAL WEATHER SERVICE GOODLAND KS
1000 AM CDT MON JUL 28 2014

NOTE:  "FAIR" INDICATES FEW OR NO CLOUDS BELOW 12,000 FEET WITH NO
SIGNIFICANT WEATHER AND/OR OBSTRUCTIONS TO VISIBILITY.

KSZ001>006-013>018-027>032-041>047-281600-
NORTHWEST KANSAS

CITY           SKY/WX    TMP DP  RH WIND       PRES   REMARKS
GOODLAND       MOSUNNY   74  57  55 S10       30.35S
HAYS           SUNNY     72  55  56 SE12      30.36R
HILL CITY      SUNNY     71  58  63 SE9       30.36R
RUSSELL        SUNNY     71  56  58 E6        30.34R
$$

KSZ061>065-074>080-084>089-281600-
SOUTHWEST KANSAS

CITY           SKY/WX    TMP DP  RH WIND       PRES   REMARKS
DODGE CITY     PTSUNNY   74  55  51 S13       30.35S
ELKHART          N/A     63  58  84 SW3         N/A
GARDEN CITY    PTSUNNY   69  61  75 SE7       30.34S
GREAT BEND     MOSUNNY   70  57  64 E6        30.34R
LIBERAL        CLOUDY    70  57  64 S12       30.36F
$$

KSZ066>073-081>083-090>101-281600-
SOUTHEAST KANSAS

CITY           SKY/WX    TMP DP  RH WIND       PRES   REMARKS
CHANUTE        SUNNY     74  60  61 N7        30.24R
COFFEYVILLE    SUNNY     74  61  63 CALM      30.23R
HUTCHINSON     MOSUNNY   73  59  61 CALM      30.32R
MEDICINE LODGE   N/A     74  61  63 NW5       30.32R
NEWTON         SUNNY     72  55  56 NE6       30.34R
PARSONS        SUNNY     76  59  55 VRB6      30.24R
WICHITA INTL   MOSUNNY   75  59  57 N6        30.29R
WICHITA JABRA  SUNNY     74  59  59 NE8       30.30R
WINFIELD       SUNNY     75  61  61 VRB6      30.29R
$$

KSZ007>012-019>026-033>040-048>060-102>105-281600-
NORTHEAST KANSAS

CITY           SKY/WX    TMP DP  RH WIND       PRES   REMARKS
CONCORDIA      MOSUNNY   70  57  63 NE8       30.31R
EMPORIA        MOSUNNY   71  57  61 N8        30.26R
LAWRENCE       SUNNY     73  60  63 N9        30.24R
MANHATTAN      MOSUNNY   73  57  57 MISG      30.28R
OLATHE IND     SUNNY     70  60  70 N8        30.24R
OLATHE EXE     SUNNY     70  59  68 N7        30.22R
SALINA         SUNNY     73  55  53 N7        30.31R
TOPEKA BILLARD SUNNY     73  57  57 N7        30.25R
TOPEKA FORBES  SUNNY     73  57  57 NW10      30.25R
$$


USA.gov is the U.S. government's official web portal to all federal, state and local government web resources and services.